[[{"header":{"parameterUnit":"m.s-1","parameterCategory":2,"la1":30.2991,"la2":30.254,"lo1":-89.0895,"lo2":-89.0444,"dx":0.0017,"dy":0.0017,"nx":28,"ny":28,"refTime":"2023-01-10T15:00:00:Z","depth":"0","parameterNumber":2,"parameterNumberName":"U-component_of_CURRENTS"},"data":[0,0,0,0,0,0,0,0,0,0,0,0,0,0,0,0,0,0,0,0,0,0,0,0,0,0,0,0,0,0,0,0,0,0,0,0,0,0,0,0,0,0,0,0,0,0,0,0,0,0,0,0,0,0,0,0,0,0,0.2499,0.25,0,0.2571,0.2572,0.2572,0.258,0.258,0.2579,0.2579,0.2613,0.2614,0.2616,0,0,0,0,0,0,0,0,0,0,0,0,0,0.2413,0.2414,0.2499,0.25,0.2501,0.2571,0.2572,0.2573,0.258,0.258,0.2579,0.2578,0.2613,0.2614,0.2616,0,0,0,0,0,0,0,0,0,0,0,0,0,0.2462,0.2414,0.2498,0.2515,0.2517,0.2571,0.2572,0.2573,0.258,0.2579,0.2579,0.2578,0.2612,0.2614,0.2616,0.2645,0,0,0.2623,0.2623,0,0,0,0,0,0,0,0,0.2459,0.2465,0.2511,0.2514,0.2517,0.2568,0.2555,0.2596,0.258,0.2554,0.2578,0.2578,0.2597,0.26,0.2612,0.2646,0.2648,0.2623,0.2624,0.2625,0.2625,0,0,0,0,0,0,0,0.2456,0.2462,0.2525,0.2513,0.2516,0.2535,0.254,0.2563,0.2576,0.2556,0.2557,0.257,0.2597,0.261,0.2613,0.2648,0.2623,0.2625,0.2626,0.2627,0.2727,0.2729,0,0,0,0,0,0,0.245,0.2459,0.2523,0.2527,0.2488,0.2537,0.2543,0.255,0.2577,0.2581,0.257,0.257,0.2607,0.2611,0.2614,0.2683,0.2625,0.2627,0.2628,0.2726,0.2727,0.2729,0,0,0,0,0,0,0.2448,0.2455,0.252,0.2497,0.2507,0.2539,0.2548,0.2552,0.2567,0.2588,0.2591,0.258,0.2607,0.2611,0.2647,0.2683,0.2628,0.263,0.2724,0.2726,0.2728,0.2798,0,0,0,0,0,0,0.2445,0.2454,0.2461,0.2496,0.2508,0.2544,0.2549,0.2554,0.2577,0.2577,0.2598,0.2601,0.2606,0.2644,0.2649,0.2684,0.2631,0.2722,0.2725,0.2728,0.2794,0.2802,0.2809,0,0,0,0,0,0.2442,0.2457,0.246,0.2468,0.2515,0.2545,0.2552,0.2571,0.2578,0.2582,0.261,0.26,0.2664,0.2648,0.2653,0.269,0.2721,0.2724,0.2727,0.2791,0.2801,0.2809,0,0,0,0,0,0,0.2437,0.2461,0.2465,0.249,0.2511,0.2547,0.256,0.2576,0.2603,0.2605,0.2622,0.2627,0.2682,0.2669,0.265,0.2725,0.269,0.2694,0.2736,0.2745,0.2753,0.2812,0.2633,0,0,0,0,0,0.2436,0.2446,0.2473,0.2495,0.2501,0.2531,0.2549,0.2561,0.2591,0.2601,0.262,0.2647,0.2701,0.2707,0.2742,0.2773,0.2839,0.2797,0.2805,0.2812,0.2864,0.3024,0.3053,0.2739,0.2739,0.2739,0,0,0.2442,0.2459,0.2465,0.2493,0.251,0.2548,0.2538,0.2563,0.2608,0.2602,0.2658,0.2684,0.272,0.2773,0.2792,0.2761,0.2923,0.2816,0.2821,0.2871,0.3031,0.3062,0.309,0.2742,0.2741,0.2741,0,0,0.2478,0.2468,0.2497,0.2518,0.2546,0.2556,0.2563,0.2595,0.2614,0.2664,0.2695,0.2756,0.2781,0.2845,0.2877,0.2948,0.2975,0.2923,0.2996,0.315,0.3179,0.3205,0.3282,0.3315,0.2908,0.2908,0.2908,0,0.2498,0.2536,0.2511,0.2557,0.2593,0.2564,0.2622,0.2636,0.268,0.2731,0.2684,0.2833,0.2841,0.2982,0.2994,0.2975,0.3035,0.2957,0.3166,0.3194,0.322,0.3293,0.3329,0.2911,0.2911,0.2911,0.291,0,0.2572,0.2601,0.2618,0.2663,0.2684,0.2721,0.2737,0.2762,0.2768,0.2808,0.2925,0.2952,0.3053,0.3044,0.3038,0.3217,0.3189,0.3176,0.3152,0.3257,0.3325,0.3361,0.2917,0.2916,0.2914,0.2913,0,0,0.2637,0.2669,0.2678,0.2721,0.275,0.2781,0.2838,0.2913,0.2995,0.3007,0.3141,0.3212,0.3231,0.3272,0.3274,0.3375,0.357,0.334,0.3346,0.3432,0.387,0.3729,0.3753,0.3594,0.3602,0.3608,0.3827,0,0.2718,0.2813,0.281,0.2901,0.2951,0.2952,0.3016,0.3075,0.3113,0.3213,0.3266,0.3374,0.3313,0.3364,0.3468,0.3561,0.3675,0.3509,0.3743,0.375,0.3628,0.3796,0.3643,0.3817,0.3862,0.3868,0.3873,0,0.281,0.286,0.2965,0.3038,0.3062,0.3111,0.3227,0.3285,0.3397,0.3434,0.3544,0.3572,0.3726,0.3644,0.3897,0.379,0.3858,0.3906,0.3915,0.3802,0.368,0.3728,0.388,0.377,0.3928,0.3923,0.3919,0,0.2881,0.2971,0.3057,0.3089,0.3164,0.3227,0.3267,0.3371,0.3417,0.359,0.3632,0.3824,0.3888,0.4051,0.4087,0.4037,0.4334,0.4283,0.4229,0.4216,0.4146,0.4114,0.4245,0.452,0.452,0.4519,0.4519,0,0.2973,0.3037,0.3098,0.3152,0.3241,0.3299,0.3404,0.3473,0.3579,0.3647,0.3748,0.3825,0.3997,0.4124,0.4198,0.4306,0.444,0.431,0.4305,0.4152,0.4119,0.4063,0.3966,0.4527,0.4526,0.4524,0.4523,0,0.3004,0.306,0.3146,0.3244,0.3268,0.333,0.3389,0.3461,0.3576,0.367,0.3718,0.3869,0.4052,0.4173,0.4424,0.4411,0.443,0.4554,0.4308,0.427,0.4088,0.3998,0.4025,0.3919,0.4586,0.4584,0.4583,0,0.3011,0.3072,0.3167,0.3192,0.3224,0.33,0.3332,0.3436,0.3491,0.3669,0.3705,0.3903,0.399,0.426,0.4353,0.4509,0.438,0.4415,0.4312,0.4116,0.4017,0.3856,0.3753,0.4236,0.4232,0.4229,0.4226,0,0.3002,0.3044,0.3094,0.3148,0.3188,0.3229,0.3292,0.3318,0.3451,0.3519,0.364,0.3741,0.3973,0.4057,0.4221,0.4295,0.4184,0.4347,0.4272,0.3878,0.3598,0.3475,0.3992,0.4197,0.42,0.4202,0.4204,0.4205,0.2946,0.2963,0.3026,0.307,0.3108,0.3148,0.3144,0.3211,0.3261,0.3347,0.3516,0.3611,0.3783,0.3995,0.4034,0.3984,0.3976,0.3916,0.3862,0.375,0.353,0.3926,0.4026,0.4028,0.403,0.4031,0.4033,0,0.2856,0.2896,0.2935,0.2976,0.2983,0.3047,0.3091,0.3068,0.3071,0.3204,0.3287,0.3418,0.3495,0.3618,0.3641,0.3536,0.3425,0.3456,0.3247,0.3202,0.3706,0.357,0.342,0.342,0.342,0.342,0.342,0.342,0.2806,0.2818,0.2857,0.2843,0.2867,0.2832,0.2838,0.2819,0.2875,0.2882,0.2928,0.3043,0.3215,0.3306,0.324,0.3177,0.2962,0.2825,0.2827,0.3209,0.3248,0.3286,0.3143,0.2905,0.2904,0.2247,0.2241,0.2237]},{"header":{"parameterUnit":"m.s-1","parameterCategory":2,"la1":30.2991,"la2":30.254,"lo1":-89.0895,"lo2":-89.0444,"dx":0.0017,"dy":0.0017,"nx":28,"ny":28,"refTime":"2023-01-10T15:00:00:Z","depth":"0","parameterNumber":3,"parameterNumberName":"V-component_of_CURRENTS"},"data":[0,0,0,0,0,0,0,0,0,0,0,0,0,0,0,0,0,0,0,0,0,0,0,0,0,0,0,0,0,0,0,0,0,0,0,0,0,0,0,0,0,0,0,0,0,0,0,0,0,0,0,0,0,0,0,0,0,0,0.0409,0.041,0,0.0394,0.0394,0.0393,0.0387,0.0388,0.0388,0.0388,0.0374,0.0373,0.0373,0,0,0,0,0,0,0,0,0,0,0,0,0,0.0409,0.0409,0.0409,0.041,0.041,0.0394,0.0394,0.0393,0.0387,0.0388,0.0388,0.0389,0.0374,0.0373,0.0373,0,0,0,0,0,0,0,0,0,0,0,0,0,0.0399,0.0409,0.0409,0.0408,0.0408,0.0394,0.0394,0.0393,0.0387,0.0388,0.0388,0.0389,0.0375,0.0374,0.0372,0.0353,0,0,0.0369,0.0368,0,0,0,0,0,0,0,0,0.04,0.0399,0.0408,0.0408,0.0408,0.0397,0.0389,0.0381,0.0387,0.0391,0.0388,0.0389,0.0384,0.0382,0.0372,0.0352,0.0352,0.0369,0.0368,0.0368,0.0367,0,0,0,0,0,0,0,0.04,0.0399,0.0399,0.0408,0.0408,0.04,0.0399,0.0387,0.0381,0.039,0.0391,0.0396,0.0384,0.0373,0.0372,0.0351,0.0369,0.0368,0.0367,0.0367,0.0333,0.0333,0,0,0,0,0,0,0.0411,0.04,0.04,0.0399,0.041,0.04,0.0399,0.0396,0.0381,0.038,0.0395,0.0395,0.0375,0.0373,0.0371,0.0397,0.0368,0.0367,0.0366,0.0333,0.0333,0.0333,0,0,0,0,0,0,0.0411,0.0411,0.04,0.0403,0.0402,0.04,0.0397,0.0396,0.0389,0.0385,0.0384,0.0391,0.0375,0.0373,0.037,0.0394,0.0366,0.0365,0.0334,0.0333,0.0333,0.0416,0,0,0,0,0,0,0.0411,0.0411,0.0415,0.0403,0.0402,0.0387,0.0397,0.0395,0.0393,0.0393,0.0381,0.038,0.0376,0.0372,0.0369,0.0392,0.0364,0.0334,0.0334,0.0333,0.0414,0.0419,0.0423,0,0,0,0,0,0.0411,0.0423,0.0415,0.0415,0.0407,0.0387,0.0384,0.0383,0.0392,0.0381,0.0386,0.0381,0.0367,0.0371,0.0367,0.0391,0.0334,0.0334,0.0333,0.0412,0.0418,0.0423,0,0,0,0,0,0,0.0432,0.0424,0.0414,0.0425,0.0402,0.0388,0.0387,0.0383,0.0376,0.0383,0.038,0.0378,0.0386,0.0365,0.0369,0.0375,0.0349,0.0347,0.0409,0.0415,0.0419,0.0495,0.0363,0,0,0,0,0,0.0435,0.044,0.0418,0.0425,0.0412,0.0396,0.0391,0.0385,0.0379,0.0376,0.0371,0.0369,0.0379,0.0379,0.037,0.0371,0.0379,0.038,0.0385,0.0389,0.0445,0.0484,0.0499,0.0332,0.0332,0.0332,0,0,0.0445,0.0444,0.0445,0.0429,0.0412,0.0415,0.0393,0.0383,0.0401,0.0376,0.0395,0.0383,0.038,0.0392,0.0392,0.0381,0.0425,0.0389,0.0393,0.0448,0.0485,0.0503,0.0518,0.0331,0.0331,0.0331,0,0,0.048,0.0459,0.0476,0.046,0.0441,0.0426,0.0423,0.04,0.0401,0.0404,0.0408,0.0428,0.0401,0.0436,0.0446,0.0469,0.0448,0.0433,0.0527,0.0562,0.0578,0.0592,0.0567,0.0579,0.0437,0.0437,0.0437,0,0.0501,0.0523,0.0475,0.0489,0.0503,0.0436,0.0466,0.0445,0.043,0.0458,0.0418,0.0465,0.0445,0.0531,0.0533,0.0491,0.0478,0.051,0.0574,0.0589,0.0603,0.0574,0.0586,0.0441,0.0441,0.044,0.044,0,0.055,0.0567,0.0572,0.0575,0.0567,0.0575,0.0544,0.0536,0.0524,0.0527,0.0581,0.0566,0.0614,0.0587,0.057,0.0658,0.0602,0.0577,0.0575,0.0626,0.0589,0.06,0.0447,0.0445,0.0444,0.0443,0,0,0.0616,0.0615,0.062,0.0648,0.0624,0.0627,0.0644,0.0667,0.0721,0.0685,0.0786,0.0783,0.0782,0.0796,0.0774,0.0801,0.0845,0.0731,0.0731,0.0732,0.0878,0.0784,0.0785,0.0826,0.083,0.0833,0.0795,0,0.0684,0.0741,0.0726,0.0784,0.081,0.0775,0.0811,0.0817,0.0816,0.0874,0.0879,0.0941,0.0856,0.0894,0.0909,0.0892,0.0887,0.0856,0.0809,0.0808,0.0741,0.0802,0.0729,0.0687,0.0806,0.0808,0.0809,0,0.0757,0.0789,0.0863,0.0919,0.0929,0.0954,0.1022,0.1046,0.1089,0.1102,0.1155,0.1141,0.121,0.111,0.1118,0.1097,0.1,0.0953,0.0949,0.0863,0.0738,0.0664,0.0703,0.0497,0.0826,0.0825,0.0823,0,0.0844,0.0898,0.0971,0.0983,0.1018,0.1065,0.1089,0.1128,0.1174,0.1262,0.1318,0.1364,0.1417,0.1346,0.1222,0.1179,0.12,0.1122,0.0936,0.0924,0.0862,0.084,0.0735,0.1111,0.1111,0.1111,0.1111,0,0.0939,0.0996,0.1016,0.1053,0.114,0.1155,0.1256,0.1284,0.1367,0.1458,0.1451,0.1548,0.1482,0.146,0.1308,0.1173,0.1259,0.0992,0.0939,0.0875,0.0856,0.0672,0.0595,0.111,0.111,0.111,0.1111,0,0.1009,0.1033,0.1102,0.1155,0.1176,0.1234,0.1311,0.1388,0.1469,0.1598,0.1639,0.1713,0.1707,0.1576,0.1485,0.1296,0.1043,0.1066,0.0966,0.0903,0.0525,0.0455,0.0373,0.0296,0.0878,0.0876,0.0874,0,0.1047,0.1091,0.1143,0.1173,0.1195,0.1274,0.1331,0.1418,0.1506,0.1695,0.1777,0.1834,0.1879,0.1701,0.1413,0.1145,0.0977,0.0862,0.0778,0.0531,0.0416,0.0373,0.0313,0.0693,0.069,0.0687,0.0685,0,0.1093,0.1105,0.1145,0.1201,0.1261,0.1343,0.1445,0.153,0.1671,0.1801,0.1991,0.206,0.1902,0.1665,0.1294,0.1074,0.0722,0.0797,0.0602,0.0335,0.0232,0.0122,0.064,0.0663,0.0665,0.0666,0.0668,0.0669,0.1094,0.1122,0.1164,0.1225,0.1297,0.1423,0.1515,0.1648,0.1819,0.204,0.2111,0.2225,0.1856,0.1373,0.108,0.0454,0.0537,0.0239,0.0191,0.0182,0.0078,0.0519,0.0445,0.0446,0.0447,0.0448,0.0449,0,0.1084,0.113,0.1184,0.1275,0.1372,0.1416,0.1596,0.1716,0.1925,0.2101,0.2254,0.2083,0.161,0.1119,0.0316,-0.0087,-0.0195,-0.0292,-0.0366,-0.0385,0.0044,0.0001,-0.0243,-0.0243,-0.0242,-0.0242,-0.0242,-0.0242,0.1081,0.1131,0.1174,0.1322,0.1405,0.1567,0.1685,0.1862,0.2011,0.2182,0.2205,0.2213,0.1777,0.0495,-0.0415,-0.061,-0.0809,-0.0874,-0.0931,-0.0675,-0.0629,-0.0586,-0.0647,-0.1023,-0.1024,-0.1358,-0.1361,-0.1364]}],[{"header":{"parameterUnit":"m.s-1","parameterCategory":2,"la1":30.2991,"la2":30.254,"lo1":-89.0895,"lo2":-89.0444,"dx":0.0017,"dy":0.0017,"nx":28,"ny":28,"refTime":"2023-01-10T15:00:00:Z","depth":"2","parameterNumber":2,"parameterNumberName":"U-component_of_CURRENTS"},"data":[0,0,0,0,0,0,0,0,0,0,0,0,0,0,0,0,0,0,0,0,0,0,0,0,0,0,0,0,0,0,0,0,0,0,0,0,0,0,0,0,0,0,0,0,0,0,0,0,0,0,0,0,0,0,0,0,0,0,0.1907,0.1907,0,0.1824,0.1822,0.1821,0.1831,0.1834,0.1836,0.1838,0.1806,0.1803,0.18,0,0,0,0,0,0,0,0,0,0,0,0,0,0.1947,0.1946,0.1907,0.1907,0.1907,0.1824,0.1822,0.182,0.1831,0.1834,0.1836,0.1839,0.1807,0.1803,0.1799,0,0,0,0,0,0,0,0,0,0,0,0,0,0.1894,0.1946,0.1907,0.191,0.1911,0.1825,0.1822,0.1819,0.183,0.1834,0.1837,0.184,0.1808,0.1803,0.1799,0.17,0,0,0.1785,0.1783,0,0,0,0,0,0,0,0,0.1897,0.1891,0.191,0.191,0.191,0.1851,0.1825,0.1786,0.1829,0.1849,0.1838,0.1842,0.183,0.1824,0.1784,0.1699,0.1698,0.1785,0.1782,0.178,0.1779,0,0,0,0,0,0,0,0.1901,0.1894,0.1863,0.191,0.191,0.1873,0.1869,0.1816,0.1814,0.1848,0.1851,0.1858,0.1829,0.1788,0.1784,0.1697,0.1785,0.1781,0.1778,0.1776,0.1762,0.1764,0,0,0,0,0,0,0.1935,0.1898,0.1866,0.1862,0.1924,0.1871,0.1866,0.1858,0.1813,0.1812,0.1855,0.1859,0.1795,0.1789,0.1783,0.1884,0.178,0.1776,0.1773,0.176,0.1763,0.1765,0,0,0,0,0,0,0.1935,0.1932,0.187,0.1887,0.1879,0.1868,0.1858,0.1855,0.1855,0.182,0.1819,0.1867,0.1797,0.179,0.1783,0.1876,0.1774,0.1769,0.1757,0.1761,0.1764,0.1946,0,0,0,0,0,0,0.1936,0.1932,0.192,0.1889,0.1879,0.189,0.1855,0.1851,0.1857,0.1862,0.1828,0.1826,0.1799,0.179,0.1779,0.1868,0.1766,0.1754,0.1759,0.1763,0.1937,0.1956,0.1971,0,0,0,0,0,0.1938,0.193,0.192,0.1916,0.1869,0.1893,0.1885,0.188,0.1855,0.1884,0.1844,0.1829,0.1813,0.1786,0.1773,0.1863,0.1752,0.1757,0.1763,0.193,0.1952,0.1971,0,0,0,0,0,0,0.1944,0.193,0.1919,0.1906,0.1931,0.1902,0.191,0.1891,0.187,0.187,0.1821,0.1817,0.1862,0.1814,0.1787,0.1873,0.1794,0.1797,0.1926,0.1946,0.1963,0.1974,0.1762,0,0,0,0,0,0.1936,0.1931,0.1932,0.1931,0.1945,0.1921,0.1919,0.1925,0.1909,0.1903,0.1881,0.1859,0.1858,0.1865,0.185,0.186,0.1864,0.192,0.1937,0.1952,0.1952,0.2063,0.2092,0.1783,0.1783,0.1783,0,0,0.1947,0.1932,0.1934,0.1933,0.1935,0.196,0.1929,0.1959,0.1983,0.1898,0.192,0.1909,0.1871,0.1916,0.1934,0.1897,0.204,0.1959,0.1972,0.1963,0.2072,0.2103,0.213,0.1786,0.1786,0.1785,0,0,0.1971,0.1953,0.1962,0.1978,0.2001,0.2001,0.2024,0.2025,0.2042,0.2042,0.2019,0.2063,0.2016,0.2053,0.2049,0.2137,0.2125,0.2143,0.2241,0.2351,0.2378,0.2402,0.2447,0.2474,0.2156,0.2156,0.2156,0,0.1981,0.1982,0.1979,0.1993,0.2014,0.2031,0.2067,0.2076,0.2079,0.2112,0.2087,0.2115,0.2092,0.2182,0.2216,0.2186,0.2211,0.2172,0.2378,0.2402,0.2423,0.2463,0.249,0.2166,0.2164,0.2164,0.2163,0,0.2016,0.2017,0.2037,0.2056,0.2084,0.2129,0.216,0.2209,0.2219,0.2232,0.2329,0.2312,0.235,0.2366,0.2298,0.2456,0.2413,0.2391,0.2335,0.2466,0.2499,0.2524,0.2179,0.2176,0.2173,0.2171,0,0,0.2041,0.2057,0.2064,0.2077,0.2123,0.2152,0.2232,0.2316,0.2361,0.2422,0.2508,0.2548,0.2576,0.2572,0.2562,0.2634,0.2797,0.257,0.2572,0.2629,0.3006,0.2797,0.2802,0.2823,0.2829,0.2833,0.2968,0,0.2079,0.2108,0.2114,0.217,0.2198,0.2248,0.2303,0.238,0.2436,0.2524,0.2614,0.2675,0.2649,0.2681,0.2773,0.2753,0.287,0.2759,0.2854,0.2856,0.2669,0.2828,0.2637,0.2726,0.2992,0.2996,0.2999,0,0.211,0.2123,0.2179,0.2213,0.2233,0.2273,0.2388,0.244,0.2579,0.2614,0.2758,0.2813,0.2949,0.2903,0.3055,0.2982,0.3029,0.3029,0.3035,0.2788,0.2694,0.2636,0.276,0.3039,0.3036,0.3033,0.3031,0,0.2116,0.2165,0.2212,0.2227,0.2279,0.2333,0.238,0.2487,0.2526,0.2707,0.2747,0.2946,0.2993,0.3137,0.3138,0.3129,0.3256,0.3259,0.3148,0.3131,0.2956,0.2913,0.345,0.3449,0.3449,0.3449,0.3448,0,0.213,0.2155,0.2221,0.223,0.2274,0.2336,0.2395,0.2459,0.2575,0.2625,0.2805,0.2874,0.3049,0.3139,0.3204,0.3203,0.3345,0.3188,0.3174,0.3006,0.2969,0.3213,0.3184,0.3454,0.3453,0.3452,0.3451,0,0.207,0.2144,0.2157,0.2228,0.2261,0.2279,0.2341,0.2379,0.2495,0.258,0.2652,0.2823,0.2962,0.31,0.3257,0.3207,0.3278,0.3266,0.3005,0.2956,0.3081,0.306,0.3212,0.3207,0.3202,0.3198,0.3194,0,0.2018,0.2025,0.2095,0.2115,0.2138,0.219,0.2215,0.232,0.2354,0.2528,0.2558,0.2755,0.2839,0.295,0.3004,0.312,0.3229,0.291,0.2873,0.3096,0.3069,0.3055,0.304,0.2734,0.2727,0.2722,0.2717,0,0.186,0.19,0.1921,0.198,0.2018,0.2036,0.2095,0.2112,0.2254,0.233,0.2442,0.2547,0.2678,0.268,0.2749,0.2789,0.2871,0.2791,0.3169,0.2772,0.2643,0.2614,0.2618,0.2667,0.2672,0.2675,0.2678,0.268,0.1723,0.1704,0.178,0.1835,0.1876,0.1921,0.1918,0.1993,0.2057,0.2161,0.2261,0.2324,0.2372,0.242,0.2397,0.2415,0.2624,0.2523,0.2545,0.2571,0.244,0.2304,0.2239,0.2242,0.2244,0.2246,0.2247,0,0.1583,0.1638,0.164,0.1722,0.1727,0.1828,0.1868,0.1859,0.1919,0.1987,0.2054,0.1908,0.1933,0.2063,0.202,0.1976,0.2006,0.1907,0.1967,0.2017,0.2063,0.1908,0.1566,0.1563,0.1561,0.1559,0,0,0.1555,0.1528,0.1564,0.1595,0.1667,0.1678,0.1708,0.1704,0.1729,0.1676,0.169,0.1814,0.1944,0.171,0.1698,0.1637,0.1808,0.1573,0.2127,0.2247,0.2289,0.2429,0.2248,0,0,0,0,0]},{"header":{"parameterUnit":"m.s-1","parameterCategory":2,"la1":30.2991,"la2":30.254,"lo1":-89.0895,"lo2":-89.0444,"dx":0.0017,"dy":0.0017,"nx":28,"ny":28,"refTime":"2023-01-10T15:00:00:Z","depth":"2","parameterNumber":3,"parameterNumberName":"V-component_of_CURRENTS"},"data":[0,0,0,0,0,0,0,0,0,0,0,0,0,0,0,0,0,0,0,0,0,0,0,0,0,0,0,0,0,0,0,0,0,0,0,0,0,0,0,0,0,0,0,0,0,0,0,0,0,0,0,0,0,0,0,0,0,0,-0.0274,-0.0276,0,-0.0467,-0.0469,-0.0471,-0.054,-0.0539,-0.0539,-0.0538,-0.0567,-0.0569,-0.057,0,0,0,0,0,0,0,0,0,0,0,0,0,-0.0118,-0.012,-0.0274,-0.0276,-0.0278,-0.0466,-0.0469,-0.0472,-0.054,-0.0539,-0.0538,-0.0538,-0.0567,-0.0568,-0.057,0,0,0,0,0,0,0,0,0,0,0,0,0,-0.0236,-0.012,-0.0273,-0.0334,-0.0342,-0.0466,-0.0469,-0.0472,-0.0541,-0.0539,-0.0538,-0.0537,-0.0566,-0.0568,-0.057,-0.0608,0,0,-0.0577,-0.0578,0,0,0,0,0,0,0,0,-0.0229,-0.0242,-0.0323,-0.033,-0.0339,-0.0477,-0.0425,-0.0509,-0.0541,-0.0466,-0.0538,-0.0537,-0.0522,-0.0528,-0.0571,-0.0609,-0.0611,-0.0578,-0.0579,-0.058,-0.0581,0,0,0,0,0,0,0,-0.0221,-0.0235,-0.0351,-0.0326,-0.0335,-0.0405,-0.0419,-0.0443,-0.0496,-0.0473,-0.0478,-0.0498,-0.0525,-0.0569,-0.0571,-0.0611,-0.0577,-0.0579,-0.0581,-0.0582,-0.0608,-0.0608,0,0,0,0,0,0,-0.0188,-0.0226,-0.0345,-0.0357,-0.0279,-0.0408,-0.0424,-0.0435,-0.05,-0.0509,-0.0499,-0.0501,-0.0565,-0.0569,-0.0572,-0.0513,-0.058,-0.0582,-0.0583,-0.0609,-0.0608,-0.0607,0,0,0,0,0,0,-0.0184,-0.0197,-0.0337,-0.0296,-0.0318,-0.041,-0.0423,-0.0439,-0.0468,-0.0521,-0.0528,-0.0509,-0.0564,-0.0569,-0.0576,-0.0518,-0.0583,-0.0585,-0.061,-0.0609,-0.0608,-0.0462,0,0,0,0,0,0,-0.0179,-0.0194,-0.0204,-0.0293,-0.0319,-0.0371,-0.0425,-0.0444,-0.0483,-0.0487,-0.0532,-0.0535,-0.0564,-0.0573,-0.0578,-0.0522,-0.0587,-0.0611,-0.0609,-0.0608,-0.0467,-0.0456,-0.0446,0,0,0,0,0,-0.0172,-0.0181,-0.0203,-0.0219,-0.0325,-0.037,-0.0389,-0.0453,-0.0484,-0.0479,-0.0521,-0.0533,-0.0568,-0.0574,-0.0581,-0.0524,-0.0611,-0.061,-0.0608,-0.0472,-0.0458,-0.0446,0,0,0,0,0,0,-0.0126,-0.0192,-0.0217,-0.0248,-0.0287,-0.038,-0.0397,-0.0444,-0.0484,-0.0481,-0.0534,-0.054,-0.0525,-0.0558,-0.0563,-0.0533,-0.0588,-0.0588,-0.0482,-0.0469,-0.0459,-0.0473,-0.0589,0,0,0,0,0,-0.0118,-0.0137,-0.02,-0.0223,-0.0232,-0.0313,-0.0348,-0.038,-0.0428,-0.0447,-0.0474,-0.0507,-0.0532,-0.0525,-0.0554,-0.0538,-0.0572,-0.0507,-0.0496,-0.0486,-0.0505,-0.049,-0.0479,-0.0603,-0.0603,-0.0603,0,0,-0.011,-0.0149,-0.0162,-0.0214,-0.0253,-0.0269,-0.0329,-0.0353,-0.0365,-0.0439,-0.0444,-0.0473,-0.0526,-0.0508,-0.0501,-0.0518,-0.0469,-0.0484,-0.0475,-0.0501,-0.0488,-0.0475,-0.0464,-0.0602,-0.0602,-0.0602,0,0,-0.0098,-0.0123,-0.0132,-0.0154,-0.0196,-0.023,-0.0225,-0.0284,-0.0298,-0.0321,-0.0367,-0.0365,-0.041,-0.0417,-0.0438,-0.039,-0.0423,-0.0387,-0.0325,-0.0308,-0.0297,-0.0288,-0.0307,-0.0301,-0.0367,-0.0367,-0.0366,0,-0.0088,-0.0112,-0.0139,-0.015,-0.0162,-0.0201,-0.0199,-0.0226,-0.0277,-0.0273,-0.0295,-0.035,-0.0371,-0.0361,-0.0344,-0.0359,-0.0377,-0.0359,-0.029,-0.0282,-0.0276,-0.0298,-0.0293,-0.0359,-0.036,-0.0361,-0.0362,0,-0.0085,-0.0102,-0.0098,-0.0118,-0.0121,-0.0123,-0.0141,-0.0128,-0.0147,-0.018,-0.017,-0.0213,-0.0233,-0.0231,-0.0281,-0.0233,-0.027,-0.0282,-0.0312,-0.0254,-0.0282,-0.0279,-0.0349,-0.0352,-0.0354,-0.0356,0,0,-0.0075,-0.0094,-0.0095,-0.0103,-0.0101,-0.011,-0.0072,-0.0065,-0.0067,-0.0071,-0.0054,-0.0088,-0.0094,-0.0121,-0.0147,-0.0145,-0.01,-0.0188,-0.0191,-0.0191,-0.0087,-0.017,-0.0176,-0.0088,-0.0087,-0.0086,-0.0121,0,-0.0068,-0.0071,-0.0077,-0.0073,-0.0069,-0.0059,-0.0044,-0.003,-0.0026,-0.0006,-0.0002,-0.0006,-0.0054,-0.0047,-0.0041,-0.0099,-0.009,-0.0092,-0.0162,-0.0166,-0.0231,-0.0174,-0.0152,-0.0187,-0.0119,-0.0119,-0.0119,0,-0.0075,-0.0071,-0.0049,-0.0061,-0.0057,-0.0051,-0.0009,-0.0009,0.0034,0.0034,0.0075,0.0084,0.0113,0.0063,0.0023,0.0025,-0.002,-0.0073,-0.0074,-0.021,-0.0244,-0.0241,-0.0186,-0.0116,-0.0116,-0.0116,-0.0116,0,-0.0067,-0.0069,-0.0044,-0.0044,-0.0041,-0.0017,-0.0015,0.0016,0.0028,0.0089,0.011,0.0149,0.0149,0.0136,0.0062,0.0059,-0.0011,-0.0014,-0.0136,-0.0143,-0.0175,-0.0187,-0.0035,-0.0035,-0.0035,-0.0035,-0.0035,0,-0.0082,-0.0076,-0.0041,-0.0041,-0.0021,-0.0017,0.0002,0.0004,0.0048,0.0085,0.0133,0.0169,0.0162,0.0151,0.01,-0.0023,0.0037,-0.0135,-0.0152,-0.0126,-0.0133,-0.012,-0.0129,-0.0036,-0.0036,-0.0036,-0.0035,0,-0.0109,-0.0079,-0.0068,-0.004,-0.0024,-0.0015,0.0009,0.0024,0.0035,0.0106,0.0152,0.0182,0.0171,0.0139,0.0082,-0.0019,-0.009,-0.0148,-0.0141,-0.0158,-0.0243,-0.0244,-0.0267,-0.027,-0.0273,-0.0275,-0.0277,0,-0.0128,-0.0117,-0.007,-0.0035,-0.0023,0.0002,0.0029,0.0033,0.0073,0.0119,0.0173,0.0189,0.0244,0.009,-0.0035,-0.0131,-0.0135,-0.026,-0.0266,-0.0249,-0.0263,-0.0261,-0.0259,-0.024,-0.0242,-0.0243,-0.0244,0,-0.0158,-0.0132,-0.0114,-0.0038,0.0007,0.0041,0.0087,0.0133,0.0173,0.0248,0.0342,0.0397,0.0236,0.0146,-0.0074,-0.0156,-0.0233,-0.0293,-0.0238,-0.0203,-0.0232,-0.0243,-0.024,-0.0254,-0.0253,-0.0252,-0.0251,-0.0251,-0.0163,-0.0153,-0.0093,-0.0028,0.0027,0.0116,0.018,0.027,0.0383,0.0542,0.0508,0.0582,0.0337,0.0124,-0.0083,-0.0314,-0.0304,-0.0386,-0.0378,-0.037,-0.0379,-0.0412,-0.0471,-0.0471,-0.0471,-0.0471,-0.0472,0,-0.0135,-0.0114,-0.0071,0.0029,0.0101,0.0128,0.0256,0.0375,0.0579,0.0687,0.08,0.0626,0.045,0.0206,-0.0146,-0.0403,-0.0383,-0.0473,-0.0378,-0.0368,-0.036,-0.0363,-0.0454,-0.0454,-0.0454,-0.0455,0,0,-0.0101,-0.0064,-0.004,0.0104,0.0175,0.032,0.0421,0.0616,0.0746,0.091,0.0957,0.0928,0.0564,0.0317,-0.0021,-0.0217,-0.0227,-0.0262,-0.0256,-0.0096,-0.0083,-0.0301,-0.0298,0,0,0,0,0]}],[{"header":{"parameterUnit":"m.s-1","parameterCategory":2,"la1":30.2991,"la2":30.254,"lo1":-89.0895,"lo2":-89.0444,"dx":0.0017,"dy":0.0017,"nx":28,"ny":28,"refTime":"2023-01-10T15:00:00:Z","depth":"4","parameterNumber":2,"parameterNumberName":"U-component_of_CURRENTS"},"data":[0,0,0,0,0,0,0,0,0,0,0,0,0,0,0,0,0,0,0,0,0,0,0,0,0,0,0,0,0,0,0,0,0,0,0,0,0,0,0,0,0,0,0,0,0,0,0,0,0,0,0,0,0,0,0,0,0,0,0.0568,0.0568,0,0.059,0.059,0.0591,0.0631,0.0632,0.0632,0.0633,0.067,0.067,0.0671,0,0,0,0,0,0,0,0,0,0,0,0,0,0.0544,0.0545,0.0568,0.0568,0.0568,0.059,0.059,0.0591,0.0631,0.0632,0.0633,0.0633,0.067,0.067,0.0671,0,0,0,0,0,0,0,0,0,0,0,0,0,0.0561,0.0545,0.0568,0.0589,0.0591,0.059,0.059,0.0591,0.0631,0.0632,0.0633,0.0634,0.0669,0.067,0.0671,0.0657,0,0,0.0673,0.0673,0,0,0,0,0,0,0,0,0.056,0.0562,0.0586,0.0588,0.059,0.0607,0.0595,0.0613,0.0631,0.0618,0.0633,0.0634,0.0648,0.065,0.0655,0.0659,0.066,0.0673,0.0673,0.0673,0.0673,0,0,0,0,0,0,0,0.0559,0.0562,0.0579,0.0586,0.0589,0.0592,0.0596,0.0599,0.063,0.0619,0.0622,0.0621,0.065,0.0655,0.0657,0.0661,0.0673,0.0673,0.0674,0.0674,0.074,0.0742,0,0,0,0,0,0,0.0552,0.056,0.0578,0.0579,0.0575,0.0591,0.0596,0.0602,0.063,0.0634,0.062,0.0622,0.0653,0.0656,0.0658,0.0754,0.0673,0.0674,0.0674,0.0739,0.0741,0.0742,0,0,0,0,0,0,0.0552,0.0554,0.0577,0.0568,0.0571,0.0591,0.0598,0.0602,0.0634,0.0629,0.0635,0.0649,0.0654,0.0657,0.0681,0.0751,0.0674,0.0675,0.0737,0.074,0.0741,0.0875,0,0,0,0,0,0,0.0551,0.0554,0.0569,0.0568,0.0571,0.0597,0.0597,0.0602,0.0629,0.0633,0.0656,0.0659,0.0655,0.068,0.0681,0.0751,0.0675,0.0736,0.0738,0.0741,0.0869,0.0881,0.0892,0,0,0,0,0,0.055,0.0555,0.057,0.0572,0.0588,0.0597,0.0601,0.0618,0.063,0.0649,0.0661,0.0659,0.0698,0.0681,0.0682,0.0754,0.0734,0.0738,0.0741,0.0863,0.0879,0.0891,0,0,0,0,0,0,0.0553,0.0559,0.0575,0.0585,0.0603,0.0604,0.0619,0.0632,0.0657,0.0666,0.0667,0.067,0.0716,0.0704,0.0685,0.0777,0.072,0.0724,0.0813,0.0827,0.0839,0.0801,0.0676,0,0,0,0,0,0.056,0.0568,0.0581,0.0592,0.0604,0.062,0.063,0.0644,0.0656,0.067,0.0693,0.0709,0.0725,0.0751,0.0752,0.0802,0.0767,0.0849,0.086,0.0871,0.0839,0.0827,0.0834,0.0752,0.0752,0.0752,0,0,0.0563,0.0568,0.0573,0.0593,0.061,0.0619,0.063,0.0653,0.0678,0.0667,0.0724,0.0742,0.0739,0.0795,0.0818,0.0803,0.0889,0.0875,0.0884,0.0845,0.0831,0.0838,0.0845,0.0754,0.0754,0.0754,0,0,0.0565,0.0583,0.0595,0.0609,0.0636,0.0635,0.0648,0.0679,0.0721,0.0766,0.0768,0.0819,0.0855,0.0878,0.0888,0.0957,0.0935,0.0981,0.1035,0.1026,0.1032,0.1037,0.1063,0.1069,0.1007,0.1007,0.1008,0,0.0561,0.0584,0.0601,0.0618,0.0633,0.0644,0.0667,0.0694,0.0736,0.0782,0.0798,0.0876,0.0889,0.095,0.0982,0.0987,0.0978,0.0993,0.1042,0.1045,0.1048,0.1072,0.1077,0.1014,0.1013,0.1013,0.1012,0,0.0575,0.0597,0.0604,0.0624,0.0652,0.0663,0.0702,0.0757,0.0809,0.0837,0.0933,0.0965,0.1018,0.1052,0.1039,0.1091,0.1081,0.1046,0.1009,0.1064,0.1087,0.109,0.1024,0.1022,0.1019,0.1018,0,0,0.0539,0.0597,0.0604,0.063,0.0658,0.0678,0.0742,0.0801,0.0848,0.093,0.1011,0.1075,0.1114,0.1123,0.1151,0.1152,0.1201,0.1117,0.1113,0.1147,0.1207,0.1185,0.1186,0.1177,0.1177,0.1176,0.1238,0,0.054,0.0569,0.0613,0.0647,0.0663,0.0723,0.0773,0.0839,0.0906,0.0982,0.1061,0.1121,0.1136,0.1191,0.1203,0.1183,0.1202,0.1188,0.114,0.1139,0.1115,0.1185,0.1176,0.124,0.124,0.124,0.1241,0,0.0536,0.0559,0.0598,0.0672,0.0692,0.072,0.0823,0.0875,0.0973,0.1046,0.114,0.1176,0.1248,0.1227,0.1254,0.1246,0.123,0.1208,0.1209,0.1125,0.1119,0.1155,0.1244,0.1244,0.1244,0.1243,0.1243,0,0.0492,0.0551,0.0583,0.0601,0.0677,0.0748,0.08,0.0899,0.0968,0.1083,0.1146,0.1224,0.1288,0.1272,0.1287,0.1264,0.1276,0.1245,0.1216,0.1217,0.1157,0.115,0.1225,0.1224,0.1224,0.1224,0.1224,0,0.0453,0.0483,0.0568,0.0583,0.064,0.0728,0.0807,0.0889,0.1005,0.1073,0.1173,0.124,0.1288,0.1323,0.1302,0.1294,0.1311,0.1222,0.1222,0.1222,0.1221,0.1163,0.1155,0.1227,0.1226,0.1226,0.1225,0,0.0388,0.0439,0.0479,0.058,0.0615,0.0663,0.08,0.0858,0.0981,0.1083,0.1131,0.126,0.1319,0.1365,0.1354,0.1326,0.1301,0.1285,0.1329,0.133,0.1246,0.1244,0.1256,0.1256,0.1255,0.1255,0.1255,0,0.0358,0.0366,0.0455,0.0483,0.0533,0.0618,0.0677,0.0828,0.0902,0.1082,0.1128,0.1242,0.1317,0.1319,0.1345,0.1353,0.1319,0.1318,0.123,0.1246,0.1245,0.1244,0.1243,0.1254,0.1254,0.1254,0.1254,0,0.0296,0.0326,0.0355,0.0403,0.0472,0.0533,0.0644,0.0697,0.088,0.0998,0.1116,0.118,0.1255,0.1288,0.1326,0.1306,0.1322,0.1312,0.1311,0.1229,0.1243,0.1243,0.1242,0.1252,0.1253,0.1253,0.1253,0,0.025,0.0242,0.0281,0.032,0.039,0.0445,0.0513,0.0636,0.0737,0.0972,0.0997,0.1129,0.1239,0.1264,0.1281,0.1296,0.1256,0.1197,0.1201,0.1203,0.1156,0.1165,0.1151,0,0,0,0,0,0.0209,0.0188,0.0203,0.0252,0.0315,0.036,0.0491,0.0575,0.0761,0.0828,0.0928,0.1006,0.1093,0.1146,0.1148,0.1224,0.1232,0.1218,0.1157,0.1245,0.1246,0.1197,0,0,0,0,0,0,0.0178,0.0178,0.0169,0.0185,0.0209,0.0281,0.0362,0.0482,0.0544,0.0733,0.0782,0.0933,0.1015,0.1072,0.1117,0.1137,0.1079,0.1309,0.1307,0.1244,0.1245,0.1247,0.1196,0,0,0,0,0]},{"header":{"parameterUnit":"m.s-1","parameterCategory":2,"la1":30.2991,"la2":30.254,"lo1":-89.0895,"lo2":-89.0444,"dx":0.0017,"dy":0.0017,"nx":28,"ny":28,"refTime":"2023-01-10T15:00:00:Z","depth":"4","parameterNumber":3,"parameterNumberName":"V-component_of_CURRENTS"},"data":[0,0,0,0,0,0,0,0,0,0,0,0,0,0,0,0,0,0,0,0,0,0,0,0,0,0,0,0,0,0,0,0,0,0,0,0,0,0,0,0,0,0,0,0,0,0,0,0,0,0,0,0,0,0,0,0,0,0,0.0074,0.0073,0,-0.0002,-0.0003,-0.0004,-0.0069,-0.0069,-0.0069,-0.007,-0.0161,-0.0163,-0.0165,0,0,0,0,0,0,0,0,0,0,0,0,0,0.0106,0.0106,0.0074,0.0073,0.0072,-0.0002,-0.0003,-0.0005,-0.0068,-0.0069,-0.0069,-0.007,-0.016,-0.0162,-0.0165,0,0,0,0,0,0,0,0,0,0,0,0,0,0.0065,0.0106,0.0074,0.0034,0.003,-0.0002,-0.0003,-0.0005,-0.0068,-0.0069,-0.007,-0.007,-0.0159,-0.0162,-0.0165,-0.0172,0,0,-0.0175,-0.0176,0,0,0,0,0,0,0,0,0.0067,0.0063,0.004,0.0037,0.0032,-0.0024,-0.0025,-0.006,-0.0068,-0.0035,-0.007,-0.007,-0.0114,-0.0121,-0.0138,-0.0176,-0.018,-0.0175,-0.0177,-0.0178,-0.0179,0,0,0,0,0,0,0,0.007,0.0066,0.004,0.004,0.0035,0.0001,-0.0006,-0.0032,-0.0073,-0.0038,-0.0042,-0.0045,-0.0117,-0.0135,-0.014,-0.0181,-0.0175,-0.0178,-0.0179,-0.0181,-0.0269,-0.0269,0,0,0,0,0,0,0.009,0.0069,0.0043,0.0038,0.0052,0.0001,-0.0006,-0.0008,-0.0072,-0.0081,-0.0044,-0.0047,-0.0129,-0.0137,-0.0144,-0.0201,-0.0178,-0.0181,-0.0183,-0.0268,-0.0269,-0.027,0,0,0,0,0,0,0.0091,0.0088,0.0046,0.0054,0.0047,0.0002,0.0,-0.0009,-0.0033,-0.0076,-0.0087,-0.0059,-0.013,-0.014,-0.0162,-0.0203,-0.0182,-0.0185,-0.0268,-0.0269,-0.0269,-0.0286,0,0,0,0,0,0,0.0092,0.0089,0.0091,0.0056,0.0047,0.0029,0.0001,-0.001,-0.0032,-0.0037,-0.0092,-0.0101,-0.0131,-0.0157,-0.0165,-0.0207,-0.0187,-0.0267,-0.0268,-0.0269,-0.0284,-0.0287,-0.0289,0,0,0,0,0,0.0094,0.0093,0.0092,0.0089,0.0053,0.0029,0.0021,-0.0015,-0.0032,-0.004,-0.0071,-0.01,-0.017,-0.0159,-0.0168,-0.0213,-0.0267,-0.0268,-0.0269,-0.0283,-0.0286,-0.0289,0,0,0,0,0,0,0.0095,0.0086,0.0084,0.0077,0.006,0.002,0.0004,-0.0013,-0.0045,-0.0053,-0.0094,-0.0105,-0.0145,-0.0164,-0.0151,-0.0239,-0.0228,-0.0231,-0.0236,-0.0239,-0.0242,-0.0219,-0.019,0,0,0,0,0,0.0104,0.0109,0.009,0.0086,0.0076,0.0043,0.0028,0.0008,-0.0021,-0.0038,-0.0071,-0.0112,-0.0156,-0.0182,-0.0213,-0.0252,-0.0272,-0.0289,-0.0291,-0.0293,-0.028,-0.0344,-0.0351,-0.0273,-0.0273,-0.0273,0,0,0.0103,0.01,0.0101,0.0089,0.0067,0.0057,0.003,0.0009,-0.0002,-0.0041,-0.0071,-0.0114,-0.0163,-0.0212,-0.0235,-0.0236,-0.0326,-0.0294,-0.0296,-0.0281,-0.0346,-0.0354,-0.0361,-0.0274,-0.0274,-0.0274,0,0,0.0099,0.0101,0.0099,0.0091,0.0074,0.0062,0.006,0.0025,0.0002,-0.0018,-0.0064,-0.0118,-0.0167,-0.0226,-0.026,-0.0287,-0.0329,-0.0311,-0.0317,-0.0381,-0.0388,-0.0394,-0.0432,-0.0442,-0.0322,-0.0322,-0.0322,0,0.01,0.0101,0.0092,0.0087,0.0083,0.0068,0.006,0.004,0.0005,-0.0021,-0.0023,-0.0137,-0.0176,-0.0267,-0.0279,-0.0296,-0.0326,-0.0307,-0.0385,-0.0392,-0.0398,-0.0435,-0.0446,-0.0323,-0.0323,-0.0323,-0.0322,0,0.0087,0.0097,0.0092,0.0093,0.0083,0.008,0.006,0.0041,0.0022,-0.0006,-0.0082,-0.0142,-0.0216,-0.0252,-0.0271,-0.0357,-0.0361,-0.0375,-0.0379,-0.0407,-0.0444,-0.0455,-0.0324,-0.0324,-0.0323,-0.0323,0,0,0.0077,0.0087,0.0087,0.0104,0.0092,0.0091,0.0064,0.0035,0.0019,-0.0037,-0.0084,-0.018,-0.0225,-0.0264,-0.0326,-0.0381,-0.0454,-0.0394,-0.0397,-0.0431,-0.0582,-0.0498,-0.0502,-0.049,-0.0492,-0.0493,-0.059,0,0.0076,0.0094,0.0085,0.0105,0.0116,0.0094,0.0082,0.005,0.0017,-0.0025,-0.0124,-0.0175,-0.0229,-0.0269,-0.0344,-0.042,-0.0481,-0.0424,-0.0547,-0.055,-0.0474,-0.0511,-0.0499,-0.0598,-0.0601,-0.0603,-0.0604,0,0.0064,0.0089,0.0108,0.0139,0.0136,0.014,0.0119,0.0108,0.0034,0.0001,-0.0099,-0.016,-0.0276,-0.0292,-0.0467,-0.0431,-0.0501,-0.0555,-0.0561,-0.0479,-0.0486,-0.0564,-0.0623,-0.0622,-0.062,-0.0619,-0.0618,0,0.0084,0.0107,0.0137,0.0146,0.0164,0.0154,0.0159,0.0107,0.0106,0.0017,0.0003,-0.016,-0.0215,-0.0353,-0.0465,-0.0478,-0.0618,-0.0659,-0.0654,-0.0649,-0.0688,-0.0681,-0.0765,-0.0765,-0.0765,-0.0764,-0.0764,0,0.0102,0.0129,0.0157,0.0179,0.0217,0.02,0.022,0.0188,0.0148,0.0146,0.0025,-0.0021,-0.0226,-0.0331,-0.0459,-0.0574,-0.0629,-0.065,-0.0671,-0.0692,-0.0684,-0.0696,-0.0687,-0.0768,-0.0767,-0.0766,-0.0766,0,0.0131,0.0144,0.0193,0.0222,0.0233,0.0264,0.0296,0.0307,0.0264,0.0249,0.0227,0.0081,-0.0071,-0.0243,-0.0449,-0.0531,-0.0663,-0.0683,-0.0663,-0.0682,-0.0663,-0.0653,-0.0727,-0.0725,-0.0723,-0.0721,-0.072,0,0.0154,0.0179,0.024,0.0272,0.0292,0.0339,0.0369,0.036,0.037,0.031,0.0301,0.0167,0.0053,-0.0174,-0.0365,-0.0596,-0.0615,-0.0671,-0.0701,-0.0646,-0.0661,-0.0654,-0.0647,-0.0717,-0.0717,-0.0716,-0.0716,0,0.02,0.0217,0.0262,0.033,0.0377,0.0443,0.0478,0.0494,0.0472,0.0452,0.0364,0.0225,0.0074,-0.0154,-0.0295,-0.0469,-0.0639,-0.0654,-0.066,-0.0689,-0.0636,-0.065,-0.0646,-0.071,-0.0711,-0.0711,-0.0712,0,0.0231,0.0273,0.0319,0.0377,0.0447,0.0496,0.0525,0.0529,0.0538,0.0464,0.0434,0.025,0.013,-0.0085,-0.0234,-0.0374,-0.0437,-0.0482,-0.0499,-0.0508,-0.0406,-0.0304,-0.0292,0,0,0,0,0,0.0255,0.0286,0.0352,0.0411,0.0484,0.0515,0.0568,0.0583,0.057,0.0525,0.0479,0.0332,0.0098,-0.0019,-0.015,-0.0222,-0.0463,-0.0376,-0.0524,-0.0676,-0.0683,-0.0592,0,0,0,0,0,0,0.0258,0.0321,0.0352,0.0424,0.0462,0.0538,0.0572,0.0568,0.054,0.0501,0.0371,0.0318,0.0079,0.0161,-0.0155,-0.0198,-0.0302,-0.0489,-0.0491,-0.0672,-0.0678,-0.0684,-0.0593,0,0,0,0,0]}]]